Regional Weather Roundup
Issued by NWS

Home | Current Version | Previous Version | Graphics & Text | Print | Product List | Glossary Off
Versions: 1 2 3 4 5 6 7 8 9 10 11 12 13 14 15 16 17 18 19 20 21 22 23 24 25 26 27 28 29 30 31 32 33 34 35 36 37 38 39 40 41 42 43 44 45 46 47 48 49 50

000
ASUS43 KDMX 221601
RWRIA

WEATHER ROUNDUP FOR IOWA
NATIONAL WEATHER SERVICE DES MOINES IA
1100 AM CDT SAT JUL 22 2017

NOTE: "FAIR" INDICATES FEW OR NO CLOUDS BELOW 12,000 FEET WITH NO
SIGNIFICANT WEATHER AND/OR OBSTRUCTIONS TO VISIBILITY.

* - THESE STATIONS ARE NOT NWS STATIONS...THUS NOT UNDER NWS
QUALITY CONTROL.  THEY ALSO DO NOT REPORT WEATHER SUCH
AS PRECIPITATION OR FOG.

IAZ001>003-012>014-020>022-031>034-043>046-221700-
   NORTHWEST IOWA

CITY           SKY/WX    TMP DP  RH WIND       PRES   REMARKS
CARROLL *      CLOUDY    77  75  94 N12       29.86R
CHEROKEE *     PTSUNNY   79  74  85 NW6       29.88S HX  83
DENISON *      CLOUDY    79  75  89 VRB7G13   29.89R HX  82
ORANGE CITY *  CLOUDY    77  72  83 N7        29.91S
SHELDON *      CLOUDY    79  73  83 N7        29.89S HX  82
SIOUX CITY     CLOUDY    80  74  81 N10       29.88R HX  85
SPENCER        MOSUNNY   82  73  74 NW12      29.88F HX  87
STORM LAKE *   PTSUNNY   77  73  88 N10       29.90R
$$

IAZ055>058-069>071-079>083-090>094-221700-
   SOUTHWEST IOWA

CITY           SKY/WX    TMP DP  RH WIND       PRES   REMARKS
ATLANTIC *     MOSUNNY   82  77  83 NW13      29.84R HX  91
AUDUBON *      CLOUDY    79  75  89 NW6       29.86R HX  82
CLARINDA *     SUNNY     88  77  70 N7        29.83R HX 100
COUNCIL BLFS * PTSUNNY   81  81 100 N13       29.85S HX  91
CRESTON *      SUNNY     90  73  58 W9        29.83R HX  98
HARLAN  *      CLOUDY    79  77  94 NW9       29.89S HX  83
LAMONI         SUNNY     87  74  64 W9        29.80S HX  95
RED OAK *      SUNNY     86  79  79 NW9       29.83R HX  99
SHENANDOAH *   SUNNY     86  77  74 NW12      29.83R HX  97
$$

IAZ047>049-059>061-072>074-084-221700-
   CENTRAL IOWA

CITY           SKY/WX    TMP DP  RH WIND       PRES   REMARKS
AMES           CLOUDY    80  76  87 N9        29.83R HX  86
ANKENY *       CLOUDY    84  77  79 N10       29.82R HX  94
BOONE *        CLOUDY    77  75  94 N8        29.84R
CHARITON *     SUNNY     90  73  58 SW7G14    29.79R HX  98
DES MOINES     MOSUNNY   89  75  63 N7        29.79R HX  99
GRINNELL*      PTSUNNY   81  73  77 NW3       29.84R HX  85
KNOXVILLE *    MOSUNNY   88  73  62 W9        29.78R HX  96
MARSHALLTOWN   CLOUDY    77  72  84 NE7       29.84R
NEWTON *       MOSUNNY   82  75  78 N8        29.82R HX  89
PELLA *        MOSUNNY   85  75  71 CALM      29.81R HX  93
$$

IAZ004>006-015-016-023>025-035-036-221700-
   NORTH CENTRAL IOWA

CITY           SKY/WX    TMP DP  RH WIND       PRES   REMARKS
ALGONA *       PTSUNNY   77  73  88 N10       29.88R
CLARION *      CLOUDY    75  75 100 N8        29.88R
ESTHERVILLE    CLOUDY    77  73  87 N10       29.88S
FORT DODGE *   CLOUDY    73  72  94 N7        29.89R
MASON CITY     CLOUDY    73  71  93 N12       29.90R
FOREST CITY *  CLOUDY    73  72  94 N9G16     29.89R
WEBSTER CITY * CLOUDY    77  73  88 MISG      29.85R
IOWA FALLS *   CLOUDY    77  73  86 NE6       29.86S
$$

IAZ007>011-017>019-026>030-037>042-050>054-066-221700-
   NORTHEAST IOWA

CITY           SKY/WX    TMP DP  RH WIND       PRES   REMARKS
CEDAR RAPIDS   PTSUNNY   77  73  87 CALM      29.83S
CHARLES CITY * CLOUDY    73  73 100 SW3       29.86S
DECORAH *      CLOUDY    72  72 100 N6        29.86S
DUBUQUE        PTSUNNY   79  70  74 VRB3      29.85S HX  82
MONTICELLO *   CLOUDY    79  72  78 SW7       29.84R HX  82
OELWEIN *        N/A    N/A N/A N/A MISG        N/A
WATERLOO       CLOUDY    75  70  84 E5        29.84S
$$

IAZ064-065-067-068-078-221700-
   EAST CENTRAL IOWA

CITY           SKY/WX    TMP DP  RH WIND       PRES   REMARKS
DAVENPORT      CLOUDY    78  70  76 SW5       29.86R HX  80
IOWA CITY      CLOUDY    80  71  74 SE7       29.84R HX  84
MUSCATINE *    MOSUNNY   79  70  73 SE6       29.83S HX  81
QUAD CITIES    CLOUDY    81  70  69 W5        29.83R HX  84
$$

IAZ062-063-075>077-085>089-095>099-221700-
   SOUTHEAST IOWA

CITY           SKY/WX    TMP DP  RH WIND       PRES   REMARKS
BURLINGTON     MOSUNNY   79  73  82 S10       29.82R HX  82
FAIRFIELD *    MOSUNNY   82  73  74 S13G20    29.80R HX  88
FORT MADISON * MOSUNNY   79  73  83 S12G17    29.82S HX  82
KEOKUK *       MOSUNNY   79  72  78 S13G18    29.81S HX  82
OSKALOOSA *      N/A     86  75  70 SW7       29.80R HX  95
OTTUMWA        MOSUNNY   88  76  67 S12G17    29.78S HX  99
WASHINGTON *   MOSUNNY   81  75  83 S8        29.83R HX  86
$$

ABBREVIATIONS USED IN REMARKS
   TC - TEMPERATURES IN CELSIUS
  WCI - WIND CHILL INDEX
   HX - HEAT INDEX
  VSB - VISIBILITY
$$




USA.gov is the U.S. government's official web portal to all federal, state and local government web resources and services.